www.pogodaiklimat.ru

Погода и климат >> Архив погоды >> Мексика >> Мехико


АРХИВ ПОГОДЫ в Мехико

Время (UTC), дата Ветер
(напр.,м/с)
 
Видим.   Явления Облачность Т
(С)
Тd
(С)
f
(%)
Тe
(С)
Тes
(С)
Комфортность P
(гПа)
Po
(гПа)
Тmin
(С)
Tmax
(С)
R
(мм)
R24
(мм)
S
(см)
00 15.09 СЗ 2 14 км дым 9/4 750 м
[Cu med, cong Ac As Ci fib]
+20.6 +15.1 71 +24 +24 комфорт 1009.3 775.3 +13.6 +21.8 2
03 15.09 СЗ 2 8000 м дым 5/0 2000 м
[Ac und Ci sp]
+16.8 +12.9 78 +17 +17 по сезону 1011.6 777.6
06 15.09 СЗ 3 16 км дым 8/3 840 м
[Cu hum As trans]
+13.9 +12.4 91 +13 +13 по сезону 1012.9 778.2 +21.8
12 15.09 штиль 0 6000 м дым 8/4 840 м
[Cu med, cong As op]
+14.2 +12.2 88 +14 +14 по сезону 1014.1 777.3 +13.6 +21.8
15 15.09 СЗ 1 4000 м дым 9/4 800 м
[Cu med, cong As trans Cs]
+16.6 +13.0 79 +17 +20 по сезону 1015.8 778.0
18 15.09 З 3 5000 м дым 6/1 840 м
[Cu hum Cs]
+21.7 +14.6 64 +25 +38 комфорт 1012.1 776.1 +13.4 +21.8
21 15.09 С 2 6000 м дым 8/4 840 м
[Cu med, cong Cs]
+25.2 +16.2 57 +29 +35 душно 1007.8 774.4
00 16.09 С 6 10 км 9/6 750 м
[Cu Sc Ci]
+22.0 +15.1 65 +26 +26 душно 1005.5 774.3 +13.4 +26.5
03 16.09 СЗ 5 8000 м дым 8/4 840 м
[Cu hum As op]
+17.8 +14.3 80 +17 +17 по сезону 1007.9 776.8
06 16.09 З 2 8000 м дым 9/0 2000 м
[As op]
+15.8 +12.9 83 +16 +16 тепло 1010.0 777.8 +13.4 +26.5
09 16.09 СЗ 2 4000 м дым 9/0 2000 м
[Ac As]
+15.0 +13.0 88 +15 +15 по сезону 1010.4 776.7
12 16.09 СЗ 1 3000 м дым {туман} ясно +13.8 +12.9 94 +14 +14 по сезону 1012.8 777.0 +13.5 +26.5
15 16.09 С 2 3000 м дым {туман} 5/5 750 м
[Cu Sc]
+15.2 +13.4 89 +15 +18 по сезону 1015.7 778.3
18 16.09 В 2 3000 м дым {туман} 4/4 840 м
[Cu med, cong]
+22.0 +16.9 73 +26 +38 душно 1013.6 777.2 +13.0 +26.6
00 17.09 СЗ 3 2000 м дождь 10/6 600 м
[Cb cap As op]
+16.4 +14.8 90 +16 +16 прохладно 1008.4 775.2 +13.0 +26.5 16
03 17.09 З 3 3000 м слаб. морось 9/4 750 м
[Cu med, cong As op]
+15.1 +13.4 90 +14 +14 прохладно 1010.0 776.9 1
06 17.09 штиль 0 14 км дым 10/5 840 м
[Cu hum As trans]
+14.9 +14.0 94 +15 +15 по сезону 1011.1 777.0 +13.0 +26.6 9
09 17.09 З 2 8000 м дым 10/5 840 м
[Cu hum As trans]
+14.1 +13.2 94 +14 +14 по сезону 1012.0 775.9
12 17.09 З 1 6000 м дым 10/5 750 м
[Sc diur, vesp As trans]
+14.3 +12.9 91 +15 +15 тепло 1013.8 776.5 +13.7 +26.6
15 17.09 СЗ 1 3000 м мгла 9/8 750 м
[Cu Sc As trans]
+15.8 +14.0 89 +16 +18 по сезону 1015.4 777.8
18 17.09 СВ 1 2000 м мгла 8/6 750 м
[Cu hum As trans]
+22.2 +16.6 71 +27 +33 душно 1012.9 776.9 +13.7 +23.2
15 18.09 ЮВ 1 10 км мгла 9/9 750 м
[Cu Sc]
+17.8 +14.6 82 +19 +20 тепло 1012.2 776.9
18 18.09 ЮВ 2 15 км мгла 9/9 750 м
[Cu Sc]
+22.4 +16.5 69 +27 +29 душно 1011.3 776.9 +15.0 +24.0
21 18.09 С 3 8000 м дым 9/8 750 м
[Cu Sc As op]
+20.2 +14.7 71 +23 +24 комфорт 1007.0 774.5
00 19.09 ЮЗ 3 10 км дым 10/10 750 м
[Cb cap]
+19.6 +15.0 75 +22 +22 комфорт 1006.5 774.7 +15.0 +24.8
03 19.09 СВ 1 6000 м слаб. морось 10/5 800 м
[Cb cap As op]
+15.4 +14.8 96 +16 +16 по сезону 1010.1 777.5 4
06 19.09 СВ 1 10 км дым 10/5 750 м
[Sc As op]
+14.7 +14.3 97 +15 +15 по сезону 1011.1 777.1 +15.0 +24.8 9
09 19.09 штиль 0 8000 м дым 10/5 750 м
[Sc As op]
+14.7 +13.8 94 +14 +14 по сезону 1011.7 776.2
12 19.09 ЮЗ 1 6000 м дым 10/0 2000 м
[As trans]
+14.5 +13.3 93 +15 +15 тепло 1012.5 775.9 +14.3 +24.8
15 19.09 СВ 2 3000 м мгла 4/4 800 м
[Cu hum]
+18.0 +15.1 83 +19 +23 тепло 1013.4 776.5
18 19.09 С 2 2000 м дым 6/6 750 м
[Cu med, cong]
+23.0 +17.1 69 +28 +36 душно 1010.5 775.5 +14.3 +23.5
21 19.09 ЮЗ 2 4000 м дым 9/9 750 м
[Cb cap]
+20.5 +14.7 69 +24 +25 комфорт 1006.0 773.3 0.3
00 20.09 СВ 3 3000 м слаб. морось 10/9 600 м
[Cb cap As op]
+16.1 +15.4 96 +16 +16 прохладно 1006.1 774.2 +14.3 +24.1 1
03 20.09 С 1 6000 м дым {морось} 8/5 750 м
[Sc diur, vesp As op]
+15.8 +13.4 86 +16 +16 по сезону 1007.8 775.5 0.5
15 20.09 СЗ 2 3000 м мгла 6/4 840 м
[Cu hum Ci fib]
+16.8 +14.7 87 +17 +21 по сезону 1013.4 776.3
18 20.09 С 2 3000 м мгла 9/6 840 м
[Cu hum As trans]
+20.8 +16.3 75 +25 +29 комфорт 1011.5 775.7 +13.0 +22.0
12 21.09 штиль 0 3000 м дым 10/10 800 м
[Cu med, cong]
+14.0 +12.8 92 +14 +14 по сезону 1014.4 777.1 +13.5 +26.5
15 21.09 С 2 3000 м мгла 6/6 840 м
[Cu med, cong]
+16.9 +13.8 82 +17 +20 по сезону 1015.5 777.8
18 21.09 З 4 5000 м дым {туман} 3/3 840 м
[Cu hum]
+21.6 +15.6 69 +25 +34 комфорт 1013.5 777.1 +13.5 +22.4
21 21.09 В 2 5000 м дым 6/6 800 м
[Cu med, cong]
+24.8 +17.6 64 +29 +34 душно 1007.6 774.3

 

Местоположение метеостанции Мехико (Мексика): широта 19.40 долгота -99.18 высота над уровнем моря 2303 м.

В архиве по умолчанию представлена погода в Мехико за последнюю неделю. Архивные данные за месяц целиком и за предыдущие месяцы, начиная с января 2011 года, Вы можете получить, выбрав интересующий диапазон дат из раскрывающегося списка и нажав кнопку "Ввод!".


*Определитесь, кто Вы:
робот инопланетянин человек

Внимание! Время в таблицах - всемирное. Для получения местного времени необходимо прибавить поправку, которая равна -6 ч.

Смотрите также архив погоды в соседних городах и на ближайших метеорологических станциях:

Погода в Институте Географии (Мексика) (9 км)
Погода в Толуке (Мексика) (54 км)
Погода в Куэрнаваке (Мексика) (58 км)
Погода в Сакатепеке (Мексика) (78 км)
Погода в Пачуке (Мексика) (93 км)
Погода в Тлашкале (Мексика) (98 км)
Погода в Тлашкала аэропорту (Мексика) (99 км)
Погода в Тулансинго (Мексика) (114 км)
Погода в Пуэбле (Мексика) (114 км)
Погода в Керетаро (Мексика) (183 км)

Пояснения к столбцам:

Ветер - указаны скорость ветра в м/с - средняя за 10 мин, порывы в срок и между сроками (в фигурных скобках) и направление, откуда дует ветер: С - северный, СВ - северо-восточный, В - восточный, ЮВ - юго-восточный, Ю - южный, ЮЗ - юго-западный, З - западный, СЗ - северо-западный.
Видимость - горизонтальная дальность видимости в метрах или километрах. При видимости от 1 до 10 км при отсутствии осадков обычно наблюдается дымка, при ухудшении видимости до 1 км и менее - туман. В сухую погоду видимость может ухудшаться дымом, пылью или мглою.
Явления - указаны атмосферные явления, наблюдавшиеся в срок или в последний час перед сроком; фигурными скобками обозначены явления, наблюдавшиеся между сроками (за 1-3 часа до срока); квадратными скобками обозначены град или гололедные отложения с указанием их диаметра в мм.
Облачность - указаны через наклонную черту общая и нижняя облачность в баллах и высота нижней границы облаков в метрах; квадратными скобками обозначены формы облаков: Ci - перистые, Cs - перисто-слоистые, Cc - перисто-кучевые, Ac - высококучевые, As - высокослоистые, Sc - слоисто-кучевые, Ns - слоисто-дождевые, Cu - кучевые, Cb - кучево-дождевые. Подробнее классификацию облаков см. в Атласе облаков (PDF).
T - Температура воздуха - температура, измеренная на высоте 2 м над землей.
Td - Температура точки росы - температура, при понижении до которой содержащийся в воздухе водяной пар достигнет насыщения.
f - Относительная влажность воздуха - влажноcть воздуха, измеренная на высоте 2 м над землей.
Te - Эффективная температура - температура, которую ощущает одетый по сезону человек в тени. Характеристика душности погоды. При расчете учитывается влияние влажности воздуха и скорости ветра на теплоощущения человека.
Tes - Эффективная температура на солнце - температура, которую ощущает человек, с поправкой на солнечный нагрев. Характеристика знойности погоды. Зависит от высоты солнца над горизонтом, облачности и скорости ветра. Ночью, в пасмурную погоду, а также при ветре 12 м/с и более поправка равна нулю.
P - Атмосферное давление - приведенное к уровню моря атмосферное давление.
Po - Атмосферное давление - измеренное на уровне метеостанции атмосферное давление.
Tmin - Минимальная температура - минимум температуры воздуха на высоте 2 м над землей.
Tmax - Максимальная температура - максимум температуры воздуха на высоте 2 м над землей.
R - Количество осадков - Количество выпавших осадков за период времени, мм. При наведении курсора мыши на число - период времени, за который выпало указанное количество осадков.
R24 - Количество осадков - Количество выпавших осадков за 24 часа, мм.
S - Снежный покров - Высота снежного покрова, см. При наведении курсора мыши на число - состояние снежного покрова и степень покрытия местности в баллах.